Regional Weather Roundup
Issued by NWS

Home | Current Version | Previous Version | Graphics & Text | Print | Product List | Glossary On
Versions: 1 2 3 4 5 6 7 8 9 10 11 12 13 14 15 16 17 18 19 20 21 22 23 24 25 26 27 28 29 30 31 32 33 34 35 36 37 38 39 40 41 42 43 44 45 46 47 48 49 50
933
ASUS44 KLIX 310807
RWRLA
LOUISIANA WEATHER ROUNDUP
NATIONAL WEATHER SERVICE NEW ORLEANS LA
300 AM CDT TUE MAR 31 2015

NOTE: "FAIR" INDICATES FEW OR NO CLOUDS BELOW 12,000 FEET WITH NO
      SIGNIFICANT WEATHER AND/OR OBSTRUCTIONS TO VISIBILITY.
      SKY/WX - SKY CONDITION AND SIGNIFICANT WEATHER.
      TMP - AIR TEMPERATURE.    DP   - DEWPOINT TEMPERATURE.
      RH  - RELATIVE HUMIDITY.  PRES - PRESSURE.
      HX  - HEAT INDEX.         WCI  - WIND CHILL INDEX.

*  THESE STATIONS ARE NOT NWS OR FAA STATIONS AND ARE NOT UNDER
   NWS QUALITY CONTROL.

LAZ040-048-061>063-065-066-069-310900-
SOUTHEAST LOUISIANA

CITY           SKY/WX    TMP DP  RH WIND       PRES   REMARKS
N.O. AUDUBON   NOT AVBL
N.O. INTL ARPT CLEAR     63  60  90 S5        30.12F
N.O. LAKEFRONT CLEAR     69  63  81 SW6       30.12F
SLIDELL        CLEAR     64  62  93 CALM      30.11F
BATON ROUGE    CLEAR     64  62  93 SW9       30.11F
BOOTHVILLE     CLEAR     69  66  90 SW5       30.14F
BELLE CHASSE   FOG       60  58  92 CALM      30.12F VSB 1/4
BOGALUSA*        N/A     63  59  86 CALM      30.12F
GALLIANO*      PTSUNNY   57  56  97 SW6       30.12F FOG
NEW ROADS*     FAIR      62  60  94 S6        30.10F
GONZALES*      FAIR      61  61 100 CALM      30.11F
HAMMOND*       CLEAR     63  59  88 CALM      30.13F
HOUMA*         FOG       58  58 100 CALM      30.12F VSB 1/4
PORT FOURCHON* SUNNY     70  66  88 CALM      30.16F

$$

LAZ041-044-053-054-310900-
SOUTHWEST LOUISIANA

CITY           SKY/WX    TMP DP  RH WIND       PRES   REMARKS
LAKE CHARLES   CLEAR     61  60  97 CALM      30.09F FOG
LAFAYETTE      CLEAR     62  61  96 S5        30.11F
PATTERSON      CLEAR     61  57  88 CALM      30.13F
SALT POINT       N/A     63  63 100 SE3       30.10F
NEW IBERIA     FOG       59  57  93 CALM      30.12F VSB 1/4
CHENAULT AIRPK FOG       58  58 100 S3        30.10F VSB 1/4

$$

LAZ027-028-310900-
CENTRAL LOUISIANA

CITY           SKY/WX    TMP DP  RH WIND       PRES   REMARKS
FORT POLK      CLOUDY    64  63  96 S9        30.07F
ALEXANDRIA INT CLEAR     64  62  93 SW7       30.06F
ALEXANDRIA     CLEAR     59  59 100 CALM      30.08F

$$

LAZ001-002-310900-
NORTHWEST LOUISIANA

CITY           SKY/WX    TMP DP  RH WIND       PRES   REMARKS
SHREVEPORT     CLOUDY    65  61  87 SW6       30.04F
BARKSDALE AFB  CLOUDY    65  61  85 S8        30.03F
DTN SHREVEPORT CLOUDY    66  60  81 S10       30.04F

$$

LAZ014-016-310900-
NORTHEAST LOUISIANA

CITY           SKY/WX    TMP DP  RH WIND       PRES   REMARKS
MONROE         CLEAR     62  60  93 SW8       30.07S
TALLULAH       CLEAR     65  57  75 SW5       30.06F

$$




USA.gov is the U.S. government's official web portal to all federal, state and local government web resources and services.